User: anonymous   Login
Location: Unspecified
(0.0000°N, 0.0000°E)
Time: 14:50:15
(UTC+00:00)
Language:

Hubble Space Telescope - Orbit

View from above orbital plane
View from above orbital plane
View from above satellite
View from above satellite

Ground track
Ground track

The orbit data is extracted from the following two-line orbital elements,

1 20580U 90037B   22026.69401616  .00001265  00000-0  65016-4 0  9995
2 20580  28.4714  27.6618 0002371 310.7798 206.6171 15.09971052544769
Epoch (UTC): 26 January 2022 16:39:22
Eccentricity: 0.0002371
inclination: 28.4714°
perigee height: 534 km
apogee height: 538 km
right ascension of ascending node: 27.6618°
argument of perigee: 310.7798°
revolutions per day: 15.09971052
mean anomaly at epoch: 206.6171°
orbit number at epoch: 54476

The dashed part of the orbit path shows where the satellite is in the earth's shadow,  

DLR